TimeEDT,TemperatureF,Dew PointF,Humidity,Sea Level PressureIn,VisibilityMPH,Wind Direction,Wind SpeedMPH,Gust SpeedMPH,PrecipitationIn,Events,Conditions,WindDirDegrees,DateUTC
12:07 AM,69.8,66.2,88,29.83,10.0,SSW,3.5,-,N/A,,Scattered Clouds,210,2013-07-24 04:07:00
12:53 AM,69.1,68.0,96,29.81,10.0,Calm,Calm,-,N/A,,Clear,0,2013-07-24 04:53:00
1:53 AM,69.1,68.0,96,29.82,8.0,Calm,Calm,-,N/A,,Scattered Clouds,0,2013-07-24 05:53:00
2:16 AM,69.8,69.8,100,29.84,9.0,NNW,4.6,-,N/A,,Overcast,340,2013-07-24 06:16:00
2:53 AM,71.1,64.9,81,29.82,10.0,North,6.9,-,N/A,,Overcast,360,2013-07-24 06:53:00
3:06 AM,71.6,62.6,73,29.85,10.0,North,9.2,-,N/A,,Mostly Cloudy,10,2013-07-24 07:06:00
3:53 AM,68.0,62.1,81,29.82,10.0,North,4.6,-,N/A,,Clear,360,2013-07-24 07:53:00
4:53 AM,66.9,61.0,81,29.84,10.0,North,6.9,-,N/A,,Clear,350,2013-07-24 08:53:00
5:53 AM,64.9,60.1,84,29.85,10.0,North,5.8,-,N/A,,Clear,350,2013-07-24 09:53:00
6:53 AM,63.0,60.1,90,29.87,10.0,NNW,5.8,-,N/A,,Clear,330,2013-07-24 10:53:00
7:53 AM,64.0,57.9,80,29.88,10.0,North,5.8,-,N/A,,Clear,350,2013-07-24 11:53:00
8:53 AM,63.0,57.9,84,29.89,10.0,North,5.8,-,N/A,,Clear,360,2013-07-24 12:53:00
9:53 AM,66.0,59.0,78,29.91,10.0,North,5.8,-,N/A,,Scattered Clouds,350,2013-07-24 13:53:00
10:06 AM,66.2,60.8,83,29.93,10.0,NNW,5.8,-,N/A,,Mostly Cloudy,340,2013-07-24 14:06:00
10:36 AM,68.0,60.8,78,29.93,10.0,North,3.5,-,N/A,,Scattered Clouds,10,2013-07-24 14:36:00
10:53 AM,68.0,60.1,76,29.91,10.0,NE,4.6,-,N/A,,Scattered Clouds,50,2013-07-24 14:53:00
11:04 AM,69.8,60.8,73,29.93,10.0,NW,5.8,-,N/A,,Mostly Cloudy,310,2013-07-24 15:04:00
11:23 AM,68.0,60.8,78,29.93,10.0,North,5.8,-,N/A,,Overcast,350,2013-07-24 15:23:00
11:53 AM,69.1,60.1,73,29.91,10.0,Variable,4.6,-,N/A,,Mostly Cloudy,0,2013-07-24 15:53:00
12:39 PM,73.4,60.8,65,29.94,10.0,NE,6.9,-,N/A,,Scattered Clouds,40,2013-07-24 16:39:00
12:53 PM,72.0,60.1,66,29.93,10.0,Variable,6.9,-,N/A,,Scattered Clouds,0,2013-07-24 16:53:00
1:13 PM,71.6,60.8,69,29.95,10.0,NNE,5.8,-,N/A,,Mostly Cloudy,20,2013-07-24 17:13:00
1:45 PM,73.4,60.8,65,29.95,10.0,Variable,6.9,-,N/A,,Scattered Clouds,0,2013-07-24 17:45:00
1:53 PM,73.9,61.0,64,29.93,10.0,Variable,6.9,-,N/A,,Scattered Clouds,0,2013-07-24 17:53:00
2:04 PM,73.4,60.8,65,29.94,10.0,North,5.8,-,N/A,,Mostly Cloudy,360,2013-07-24 18:04:00
2:11 PM,73.4,59.0,61,29.94,10.0,North,8.1,-,N/A,,Mostly Cloudy,350,2013-07-24 18:11:00
2:23 PM,73.4,60.8,65,29.95,10.0,NNE,5.8,-,N/A,,Mostly Cloudy,30,2013-07-24 18:23:00
2:39 PM,75.2,60.8,61,29.95,10.0,Variable,3.5,-,N/A,,Scattered Clouds,0,2013-07-24 18:39:00
2:53 PM,73.0,61.0,66,29.93,10.0,NNE,8.1,-,N/A,,Mostly Cloudy,30,2013-07-24 18:53:00
3:53 PM,75.9,59.0,56,29.93,10.0,Variable,3.5,-,N/A,,Partly Cloudy,0,2013-07-24 19:53:00
4:53 PM,77.0,60.1,56,29.91,10.0,NNW,4.6,-,N/A,,Partly Cloudy,340,2013-07-24 20:53:00
5:53 PM,77.0,61.0,58,29.91,10.0,NW,4.6,-,N/A,,Clear,310,2013-07-24 21:53:00
6:53 PM,77.0,61.0,58,29.91,10.0,NNW,6.9,-,N/A,,Clear,340,2013-07-24 22:53:00
7:53 PM,75.9,61.0,60,29.92,10.0,NW,4.6,-,N/A,,Clear,320,2013-07-24 23:53:00
8:53 PM,72.0,62.1,71,29.94,10.0,NNW,3.5,-,N/A,,Clear,340,2013-07-25 00:53:00
9:53 PM,69.1,62.1,78,29.94,10.0,Calm,Calm,-,N/A,,Clear,0,2013-07-25 01:53:00
10:53 PM,69.1,61.0,75,29.95,10.0,Calm,Calm,-,N/A,,Clear,0,2013-07-25 02:53:00
11:53 PM,68.0,61.0,78,29.96,10.0,North,4.6,-,N/A,,Overcast,10,2013-07-25 03:53:00